Weather in Lagodekhi

Georgia     41°49′22″N   46°16′31″E
temp.,
°C
wind,
m/s
gust,
m/s
humid.,
%
clouds,
%
prec.,
mm/h
press.,
hPa
HPBL,
m
11 april, sun
sun1101:00+14wnw117898 0.1 101619
04:00+14ssw2278100 0.4 101536
07:00+12ene227716 0.0 101621
10:00+18s336498 0.0 1016525
13:00+20sse3349100 0.0 1015809
16:00+19wnw0256100 0.1 1014572
19:00+16nw116899 0.1 101513
22:00+14ese337021 0.2 101643
12 april, mon
mon1201:00+13nnw227878 0.6 101526
04:00+11ne01881 1.1 101511
07:00+12sse00830 0.1 101611
10:00+17sw11680 0.1 1015450
13:00+21s23514 0.1 10141384
16:00+23se47411 0.2 10132469
19:00+19e11630 0.3 101411
22:00+15ne32645 1.4 101627
13 april, tue
tue1301:00+12n1189100 3.6 101912
04:00+11e1192100 4.5 102014
07:00+12sse1188100 0.1 102141
10:00+15w227846 0.2 1021473
13:00+19sw025948 0.1 10191093
16:00+20sw2353100 0.2 10161090
19:00+15nne2280100 0.1 101629
22:00+15e467169 0.5 101695
14 april, wed
wed1401:00+12nnw0173100 0.3 101513
04:00+11ne118391 0.9 101510
07:00+12ne1185100 0.9 101621
10:00+14wsw2280100 1.4 1016273
13:00+15n4462100 2.4 1016549
16:00+19w54433 2.4 1014897
19:00+15nw226221 0.1 101411
22:00+12nne225511 0.2 101616
15 april, thu
thu1501:00+10nne11545 0.0 101617
04:00+9nne11560 0.0 101618
07:00+9nne11580 0.0 101719
10:00+15w22500 0.0 1016373
13:00+20wsw23330 0.0 10151015
16:00+22w24320 0.0 10131188
19:00+17wnw01525 0.0 101311
22:00+15ne2247100 0.0 101415